Hayden Harrison

Recruteur en chef - Auckland FC
22 Févr 2027
Lundi
Processus

Personnalité

Adaptabilité (10) Ambition (17) Controverse (1) Loyauté (18) Pression (16) Professionnalisme (7) Sportivité (12) Tempérament (3)

Profil

Style d'entraînement Démocratique
Diplôme National A
Détermination 4
Gestion des joueurs 6
Motivation 9
Discipline 5
Satisfaction professionnelle
78%
Fatigue
0%
Rôle Recruteur en chef
Salaire 42.6K p/s
Contrat 14.03.2030

Performance

Comportement Bon
Efficacité de l'entraînement
29%
Développement des joueurs
25%
Prévention des blessures
15%
Mise en place tactique
35%

Événements récents

A participé à une réunion de recrutement 14j
A participé à une réunion de recrutement 14j
A participé à une réunion de recrutement 21j
A voté contre une cible de transfert 21j
A participé à une réunion de recrutement 21j
A participé à une réunion de recrutement 21j
En formation continue 28j
En formation continue 28j

Suivi en cours

88
Joueur Club Statut Capacité Confiance Observé Dernière observation Dernier vote
Adam Bugarija Sydney FC Actif 101 / 94 41% 1 11.01.2027 -
Alexandr Dolgov Amkar Actif 92 / 89 40% 2 29.12.2026 -
Paul Glatzel Swindon Town Refusé 100 / 82 40% 1 29.12.2026 Plus d'infos
Mateo Fernández Angusht Actif 64 / 92 40% 2 28.12.2026 -
Shawn McCoulsky Harrogate Town Actif 72 / 97 40% 1 28.12.2026 -
Anthony Lokosa Tarxien Rainbows Actif 117 / 109 40% 2 26.12.2026 -
Aaron Drinan Swindon Town Refusé 119 / 89 40% 2 26.12.2026 Plus d'infos
Frédéric Maciel CSKA 1948 Actif 112 / 118 40% 3 24.12.2026 -
Danyil Alefirenko Chornomorets Refusé 89 / 110 40% 1 24.12.2026 Plus d'infos
Stephen Humphrys Bradford City Actif 106 / 116 40% 4 23.12.2026 -
Mikhail Gainov Dinamo Stavropol Actif 71 / 94 40% 1 23.12.2026 -
Edarlyn Reyes Arsenal Tula Actif 101 / 121 40% 1 22.12.2026 -
Jude Soonsup-Bell Hapoel Acre Actif 107 / 80 40% 3 19.12.2026 -
Brandon Hanlan Doncaster Rovers Actif 83 / 95 40% 1 19.12.2026 -
Miro Dinamo Makhachkala Actif 94 / 123 40% 1 17.12.2026 -
Maksym Voitikhovskyi Bukovyna Refusé 114 / 106 40% 2 16.12.2026 Plus d'infos
Milan Tučić Honved Actif 84 / 97 40% 1 16.12.2026 -
James Kirby Marsaxlokk Actif 73 / 99 40% 2 10.12.2026 -
Ivan Luquetta Neftekhimik Actif 78 / 83 40% 1 10.12.2026 -
Jordan Roberts Stevenage Refusé 92 / 125 40% 2 09.12.2026 Plus d'infos
Beryly Lubala CSKA 1948 Refusé 115 / 95 40% 4 09.12.2026 Refuser
Sam Nombe Milton Keynes Dons Refusé 100 / 105 40% 1 08.12.2026 Plus d'infos
Miullen Hibernians Actif 66 / 76 40% 3 03.12.2026 -
Carlos Paraco Metalist Actif 115 / 114 40% 2 02.12.2026 -
Harry Ashfield Wrexham Actif 76 / 95 40% 1 02.12.2026 -
Mamadou Diallo CSKA 1948 Actif 126 / 117 40% 1 01.12.2026 -
Denys Ustymenko Obolon Actif 85 / 80 40% 1 01.12.2026 -
Uroš Đuranović Sliema Wanderers Actif 125 / 95 40% 3 29.11.2026 -
Ekain Orobengoa Real Sociedad Actif 100 / 103 40% 2 27.11.2026 -
Franklin Sasere Birkirkara Actif 86 / 103 40% 1 26.11.2026 -
Amur Kalmykov Spartak Kostroma Actif 101 / 122 40% 1 25.11.2026 -
Pepijn Doesburg AS Trencin Actif 110 / 101 40% 1 25.11.2026 -
Denis Rubanov Dinamo Stavropol Actif 69 / 101 40% 1 23.11.2026 -
Martin Sekulić Ural Actif 103 / 105 40% 1 23.11.2026 -
Tiago Pucciarelli FK Senica Actif 75 / 110 40% 1 22.11.2026 -
Nikolaj Möller Sandefjord Actif 123 / 92 40% 1 22.11.2026 -
Jonathan Okoronkwo Torpedo Moscow Actif 84 / 102 40% 1 21.11.2026 -
Ryder Matos Hibernians Actif 96 / 94 40% 4 20.11.2026 -
Yohan Croizet-Kollár Diosgyor Actif 104 / 97 40% 2 20.11.2026 -
Alex Tanque Valletta Actif 110 / 103 40% 5 19.11.2026 -
Jurica Poldrugač Rudes Actif 97 / 91 40% 1 19.11.2026 -
Eirik Schulze IK Start Actif 87 / 127 40% 2 17.11.2026 -
Gilson Benchimol Akron Actif 93 / 95 40% 1 17.11.2026 -
Róbert Polievka MTK Budapest Actif 89 / 99 40% 1 15.11.2026 -
Vladislav Sarveli Nizhniy Novgorod Actif 105 / 108 40% 2 14.11.2026 -
Matías Mansilla Yenisey Actif 74 / 101 40% 1 14.11.2026 -
Shungu Dutiro PSBS Biak Actif 75 / 96 40% 3 11.11.2026 -
Tom Bradshaw Feirense Actif 100 / 108 40% 1 10.11.2026 -
Diamanka Senghor Mosta Actif 112 / 108 40% 1 09.11.2026 -
Eseosa Sule West Bromwich Albion Actif 96 / 93 40% 1 07.11.2026 -
Andreas Gruber DAC Dunajska Streda Actif 99 / 129 40% 1 06.11.2026 -
Jhonathan Caicedo Arda Actif 80 / 83 40% 1 06.11.2026 -
Kévin Rocheteau Dobrudzha Actif 91 / 93 40% 1 04.11.2026 -
Ajay Matthews Millwall Actif 97 / 121 40% 1 03.11.2026 -
Dániel Lukács Puskas Akademia Actif 129 / 93 40% 1 03.11.2026 -
Lovro Bizjak Beroe Actif 121 / 98 40% 1 02.11.2026 -
Sergio González Bunyodkor Actif 121 / 111 40% 1 02.11.2026 -
Cleiton Robozão Hibernians Actif 59 / 60 40% 2 27.10.2026 -
Lukáš Juliš MSK Zilina Actif 125 / 94 40% 1 25.10.2026 -
Yusuf Otubanjo Nasaf Actif 127 / 113 40% 1 21.10.2026 -
Elías Már Ómarsson Vikingur Actif 125 / 89 40% 1 19.10.2026 -
Hakeeb Adelakun Doncaster Rovers Actif 97 / 102 40% 1 18.10.2026 -
Kenan Dervišagić Floriana Actif 88 / 81 40% 1 17.10.2026 -
Aaron Olanare Irtysh Actif 121 / 94 40% 1 16.10.2026 -
Adalberto Peñaranda Deportivo Tachira Actif 122 / 101 40% 1 16.10.2026 -
Franco Toloza Morón Actif 115 / 109 40% 1 15.10.2026 -
Jesús Lugo Slavia Mozyr Actif 97 / 102 40% 1 15.10.2026 -
Alejandro Valencia La Equidad Actif 136 / 124 40% 1 14.10.2026 -
Mustapha Sangaré Levski Actif 140 / 120 40% 1 13.10.2026 -
Yeangel Montero Naxxar Lions Actif 108 / 114 40% 1 12.10.2026 -
Marcus Browne AFC Wimbledon Actif 121 / 113 40% 1 12.10.2026 -
Nikos Karelis Sliema Wanderers Actif 100 / 88 40% 2 11.10.2026 -
Bruno Gomes Valletta Actif 97 / 100 40% 1 10.10.2026 -
Matty Stevens AFC Wimbledon Actif 113 / 110 40% 2 07.10.2026 -
Ciaran McGuckin Rotherham United Actif 81 / 88 40% 1 06.10.2026 -
Vinicius Baiano Naxxar Lions Actif 101 / 72 40% 1 06.10.2026 -
Louis Appéré Cambridge United Actif 118 / 89 40% 1 05.10.2026 -
Louis Pahama Birkirkara Actif 95 / 86 40% 1 16.08.2026 -
Richard Figueroa Deportivo Lara Actif 127 / 101 40% 1 16.08.2026 -
Vernon Masara Burnley Actif 103 / 81 40% 1 14.08.2026 -
Takeshi Kanamori Melbourne City Actif 122 / 98 40% 2 13.08.2026 -
Jamie Reid Stevenage Actif 121 / 101 40% 1 13.08.2026 -
Friday Ubong Irtysh Actif 82 / 110 40% 1 12.08.2026 -
Ifeagwu Ojukwu Spartaks Actif 100 / 103 40% 1 11.08.2026 -
Basil Tuma Reading Actif 55 / 101 40% 1 11.08.2026 -
Ayom Majok Zabbar St. Patrick Actif 55 / 103 40% 1 06.08.2026 -
Lennon Wheeldon Derby County Actif 93 / 80 40% 1 05.08.2026 -
Zach Marsh Crystal Palace Actif 70 / 69 40% 1 03.08.2026 -